Weather in Khosrekh

Russia / Republic of Dagestan     41°59′33″N   47°16′25″E
temp.,
°C
wind,
m/s
gust,
m/s
humid.,
%
clouds,
%
prec.,
mm/h
press.,
hPa
HPBL,
m
19 september, sun
sun1900:00+5sw33821 0.0 101933
03:00+5sw43810 0.0 101833
06:00+5sw32745 0.0 101826
09:00+12ne12533 0.0 1015857
12:00+15nne1447100 0.0 10131633
15:00+14nne225647 0.0 1013759
18:00+9sw227552 0.0 101617
21:00+7sw43682 0.0 101732
20 september, mon
mon2000:00+7sw43712 0.0 101742
03:00+7sw4372100 0.0 101744
06:00+7ssw43681 0.0 101633
09:00+14ne12515 0.0 1014846
12:00+15ne225525 0.6 1013973
15:00+14nne226117 3.1 1013712
18:00+8w118550 2.1 101712
21:00+8sw2275100 2.8 101819
21 september, tue
tue2100:00+7sw2277100 0.0 101824
03:00+6sw22760 0.1 101919
06:00+5sw22710 0.0 101918
09:00+12ene22530 0.0 1017718
12:00+15ne23480 0.0 10141198
15:00+15nne135010 0.1 1012863
18:00+9sw326599 0.0 101522
21:00+8sw445399 0.0 101544
22 september, wed
wed2200:00+7sw44585 0.0 101645
03:00+7sw4365100 0.0 101630
06:00+7ssw3258100 0.0 101619
09:00+12e2347100 0.0 1013646
12:00+14ne245070 0.0 10111105
15:00+12ne2471100 1.9 1011713
18:00+8sse228798 0.5 1014104
21:00+6sw118924 0.6 101425
23 september, thu
thu2300:00+6sse118977 4.9 101469
03:00+6s228947 4.9 101333
06:00+6ssw3285100 0.0 101236
09:00+12sse1266100 0.0 1009539
12:00+14n126212 0.1 1007767
15:00+14w1752100 0.1 10061465
18:00+9sw3270100 0.0 100828
21:00+9ssw4467100 0.0 100851